Back to catalog

STARLINK-33787

AliveCommunicationsVLEO
NORAD 63519·PAYLOAD·🇺🇸 United States

Launched Apr 7, 2025 from Vandenberg Space Force Base

Loading…

Next Passes (next 24 hours)

TLE

FreshSource: CelesTrak SupGP

Epoch: Sep 14, 2026, 20:53 UTC

1 63519C 25071AC  26257.87062500 -.00008813  00000+0 -26045-3 0  2577
2 63519  53.1586 341.6920 0001158  84.7671  35.2304 15.34387065    17

Track STARLINK-33787 in real time with AllMySat

Download on the App Store